TimePST,TemperatureF,Dew PointF,Humidity,Sea Level PressureIn,VisibilityMPH,Wind Direction,Wind SpeedMPH,Gust SpeedMPH,PrecipitationIn,Events,Conditions,WindDirDegrees,DateUTC
12:53 AM,48.9,28.0,44,30.01,10.0,SSW,3.5,-,N/A,,Clear,200,2012-11-26 08:53:00
1:53 AM,48.0,25.0,41,30.03,10.0,NNW,3.5,-,N/A,,Clear,330,2012-11-26 09:53:00
2:53 AM,48.0,26.1,42,30.04,10.0,Variable,3.5,-,N/A,,Clear,0,2012-11-26 10:53:00
3:53 AM,48.0,26.1,42,30.05,10.0,Calm,Calm,-,N/A,,Clear,0,2012-11-26 11:53:00
4:53 AM,45.0,27.0,49,30.08,10.0,West,4.6,-,N/A,,Clear,260,2012-11-26 12:53:00
5:53 AM,44.1,27.0,51,30.11,10.0,WNW,9.2,-,N/A,,Clear,300,2012-11-26 13:53:00
6:53 AM,44.1,27.0,51,30.14,10.0,Calm,Calm,-,N/A,,Clear,0,2012-11-26 14:53:00
7:53 AM,48.0,26.1,42,30.16,10.0,NNW,4.6,-,N/A,,Clear,340,2012-11-26 15:53:00
8:53 AM,57.0,25.0,29,30.17,10.0,Calm,Calm,-,N/A,,Clear,0,2012-11-26 16:53:00
9:53 AM,59.0,26.1,28,30.18,10.0,Calm,Calm,-,N/A,,Clear,0,2012-11-26 17:53:00
10:53 AM,64.0,23.0,21,30.17,10.0,Calm,Calm,-,N/A,,Clear,0,2012-11-26 18:53:00
11:53 AM,64.9,19.9,18,30.14,10.0,Calm,Calm,-,N/A,,Clear,0,2012-11-26 19:53:00
12:53 PM,68.0,19.0,15,30.12,10.0,Calm,Calm,-,N/A,,Clear,0,2012-11-26 20:53:00
1:53 PM,68.0,21.0,17,30.11,10.0,South,4.6,-,N/A,,Clear,170,2012-11-26 21:53:00
2:53 PM,68.0,19.9,16,30.09,10.0,Calm,Calm,-,N/A,,Clear,0,2012-11-26 22:53:00
3:53 PM,66.9,21.0,17,30.10,10.0,South,3.5,-,N/A,,Clear,170,2012-11-26 23:53:00
4:53 PM,64.0,21.0,19,30.11,10.0,Calm,Calm,-,N/A,,Clear,0,2012-11-27 00:53:00
5:53 PM,57.9,24.1,27,30.14,10.0,NNW,4.6,-,N/A,,Clear,330,2012-11-27 01:53:00
6:53 PM,55.9,26.1,32,30.16,10.0,WNW,6.9,-,N/A,,Clear,300,2012-11-27 02:53:00
7:53 PM,54.0,26.1,34,30.17,10.0,NW,3.5,-,N/A,,Clear,320,2012-11-27 03:53:00
8:53 PM,51.1,26.1,38,30.18,10.0,NW,4.6,-,N/A,,Clear,320,2012-11-27 04:53:00
9:53 PM,50.0,26.1,39,30.19,10.0,NNW,5.8,-,N/A,,Clear,330,2012-11-27 05:53:00
10:53 PM,50.0,25.0,38,30.20,10.0,WNW,4.6,-,N/A,,Clear,300,2012-11-27 06:53:00
11:53 PM,48.9,25.0,39,30.21,10.0,West,4.6,-,N/A,,Clear,280,2012-11-27 07:53:00